Time,TemperatureF,DewpointF,PressureIn,WindDirection,WindDirectionDegrees,WindSpeedMPH,WindSpeedGustMPH,Humidity,HourlyPrecipIn,Conditions,Clouds,dailyrainin,SoftwareType,DateUTC
2013-02-12 00:00:00,56.5,55.7,29.99,ENE,62,0.0,0.0,97,0.00,,,0.38,Wunderground v.1.15,2013-02-12 06:00:00,
2013-02-12 00:10:00,56.6,55.8,29.99,East,95,0.0,0.0,97,0.00,,,0.00,Wunderground v.1.15,2013-02-12 06:10:00,
2013-02-12 00:20:00,56.5,55.7,29.98,East,89,0.0,0.0,97,0.00,,,0.00,Wunderground v.1.15,2013-02-12 06:20:00,
2013-02-12 00:30:00,56.6,55.8,29.98,East,99,0.0,0.0,97,0.00,,,0.00,Wunderground v.1.15,2013-02-12 06:30:00,
2013-02-12 00:40:00,56.6,55.8,29.98,ENE,62,0.0,0.0,97,0.00,,,0.00,Wunderground v.1.15,2013-02-12 06:40:00,
2013-02-12 00:50:00,56.6,55.8,29.98,North,1,0.0,0.0,97,0.00,,,0.00,Wunderground v.1.15,2013-02-12 06:50:00,
2013-02-12 01:00:00,56.6,55.8,29.98,ENE,68,0.0,0.0,97,0.00,,,0.00,Wunderground v.1.15,2013-02-12 07:00:00,
2013-02-12 01:10:00,56.6,55.8,29.98,NE,56,0.0,0.0,97,0.00,,,0.00,Wunderground v.1.15,2013-02-12 07:10:00,
2013-02-12 01:15:00,56.6,55.8,29.98,ENE,64,0.0,0.0,97,0.00,,,0.00,Wunderground v.1.15,2013-02-12 07:15:00,
2013-02-12 01:25:00,56.6,55.8,29.98,ENE,76,0.0,0.0,97,0.00,,,0.00,Wunderground v.1.15,2013-02-12 07:25:00,
2013-02-12 01:30:00,56.6,55.8,29.98,NE,34,0.0,0.0,97,0.00,,,0.00,Wunderground v.1.15,2013-02-12 07:30:00,
2013-02-12 01:40:00,56.6,55.8,29.98,NE,37,0.0,0.0,97,0.00,,,0.00,Wunderground v.1.15,2013-02-12 07:40:00,
2013-02-12 01:50:00,56.6,55.8,29.99,NNE,25,0.0,0.0,97,0.00,,,0.00,Wunderground v.1.15,2013-02-12 07:50:00,
2013-02-12 02:00:00,56.6,55.8,29.98,ENE,58,0.0,0.0,97,0.00,,,0.00,Wunderground v.1.15,2013-02-12 08:00:00,
2013-02-12 02:10:00,56.5,55.7,29.98,North,0,0.0,0.0,97,0.00,,,0.00,Wunderground v.1.15,2013-02-12 08:10:00,
2013-02-12 02:15:00,56.5,55.7,29.98,North,0,0.0,0.0,97,0.00,,,0.00,Wunderground v.1.15,2013-02-12 08:15:00,
2013-02-12 02:25:00,56.5,55.7,29.98,North,0,0.0,0.0,97,0.00,,,0.00,Wunderground v.1.15,2013-02-12 08:25:00,
2013-02-12 02:30:00,56.5,55.7,29.98,NE,48,0.0,0.0,97,0.00,,,0.00,Wunderground v.1.15,2013-02-12 08:30:00,
2013-02-12 02:40:00,56.5,55.7,29.98,North,0,0.0,0.0,97,0.00,,,0.00,Wunderground v.1.15,2013-02-12 08:40:00,
2013-02-12 02:50:00,56.3,55.5,29.98,North,0,0.0,0.0,97,0.00,,,0.00,Wunderground v.1.15,2013-02-12 08:50:00,
2013-02-12 03:00:00,56.3,55.5,29.98,NNE,20,0.0,4.0,97,0.00,,,0.00,Wunderground v.1.15,2013-02-12 09:00:00,
2013-02-12 03:10:00,56.2,55.4,29.98,NNE,27,1.0,1.0,97,0.00,,,0.00,Wunderground v.1.15,2013-02-12 09:10:00,
2013-02-12 03:15:00,56.2,55.4,29.98,NNE,16,0.0,1.0,97,0.00,,,0.00,Wunderground v.1.15,2013-02-12 09:15:00,
2013-02-12 03:25:00,56.0,55.2,29.98,North,0,1.0,1.0,97,0.00,,,0.00,Wunderground v.1.15,2013-02-12 09:25:00,
2013-02-12 03:30:00,56.0,55.2,29.98,ENE,65,0.0,0.0,97,0.00,,,0.00,Wunderground v.1.15,2013-02-12 09:30:00,
2013-02-12 03:40:00,56.0,55.2,29.98,NE,44,0.0,0.0,97,0.00,,,0.00,Wunderground v.1.15,2013-02-12 09:40:00,
2013-02-12 03:45:00,56.0,55.2,29.98,North,3,0.0,0.0,97,0.00,,,0.00,Wunderground v.1.15,2013-02-12 09:45:00,
2013-02-12 03:55:00,55.9,55.1,29.98,ENE,61,0.0,0.0,97,0.00,,,0.00,Wunderground v.1.15,2013-02-12 09:55:00,
2013-02-12 04:05:00,55.9,55.1,29.97,North,7,0.0,0.0,97,0.00,,,0.00,Wunderground v.1.15,2013-02-12 10:05:00,
2013-02-12 04:15:00,55.7,54.9,29.95,East,92,0.0,0.0,97,0.00,,,0.00,Wunderground v.1.15,2013-02-12 10:15:00,
2013-02-12 04:25:00,55.7,54.9,29.95,ENE,64,0.0,0.0,97,0.00,,,0.00,Wunderground v.1.15,2013-02-12 10:25:00,
2013-02-12 04:30:00,55.7,54.9,29.95,NE,47,0.0,0.0,97,0.00,,,0.00,Wunderground v.1.15,2013-02-12 10:30:00,
2013-02-12 04:40:00,55.7,54.9,29.95,ENE,76,0.0,0.0,97,0.00,,,0.00,Wunderground v.1.15,2013-02-12 10:40:00,
2013-02-12 04:45:00,55.6,54.8,29.95,East,86,0.0,4.0,97,0.00,,,0.00,Wunderground v.1.15,2013-02-12 10:45:00,
2013-02-12 04:55:00,55.7,55.1,29.95,ESE,103,0.0,0.0,98,0.00,,,0.00,Wunderground v.1.15,2013-02-12 10:55:00,
2013-02-12 05:00:00,55.7,54.9,29.95,ENE,73,0.0,0.0,97,0.00,,,0.00,Wunderground v.1.15,2013-02-12 11:00:00,
2013-02-12 05:10:00,55.7,55.1,29.95,East,95,0.0,0.0,98,0.00,,,0.00,Wunderground v.1.15,2013-02-12 11:10:00,
2013-02-12 05:15:00,55.7,55.1,29.95,East,92,0.0,0.0,98,0.00,,,0.00,Wunderground v.1.15,2013-02-12 11:15:00,
2013-02-12 05:25:00,55.7,54.9,29.95,East,85,0.0,0.0,97,0.00,,,0.00,Wunderground v.1.15,2013-02-12 11:25:00,
2013-02-12 05:30:00,55.7,55.1,29.95,NNE,13,0.0,0.0,98,0.00,,,0.00,Wunderground v.1.15,2013-02-12 11:30:00,
2013-02-12 05:40:00,55.7,54.9,29.95,NE,41,0.0,0.0,97,0.00,,,0.00,Wunderground v.1.15,2013-02-12 11:40:00,
2013-02-12 05:45:00,55.7,54.9,29.95,ENE,59,0.0,0.0,97,0.00,,,0.00,Wunderground v.1.15,2013-02-12 11:45:00,
2013-02-12 05:55:00,55.6,54.8,29.95,NE,54,0.0,2.0,97,0.00,,,0.00,Wunderground v.1.15,2013-02-12 11:55:00,
2013-02-12 06:05:00,55.4,54.6,29.94,NE,51,1.0,1.0,97,0.00,,,0.00,Wunderground v.1.15,2013-02-12 12:05:00,
2013-02-12 06:10:00,55.4,54.6,29.94,ESE,102,1.0,1.0,97,0.00,,,0.00,Wunderground v.1.15,2013-02-12 12:10:00,
2013-02-12 06:15:00,55.4,54.6,29.93,East,80,1.0,1.0,97,0.00,,,0.00,Wunderground v.1.15,2013-02-12 12:15:00,
2013-02-12 06:25:00,55.4,54.8,29.93,North,0,0.0,0.0,98,0.00,,,0.00,Wunderground v.1.15,2013-02-12 12:25:00,
2013-02-12 06:30:00,55.4,54.6,29.93,East,95,1.0,1.0,97,0.00,,,0.00,Wunderground v.1.15,2013-02-12 12:30:00,
2013-02-12 06:40:00,55.4,54.8,29.93,NE,45,1.0,4.0,98,0.00,,,0.00,Wunderground v.1.15,2013-02-12 12:40:00,
2013-02-12 06:45:00,55.4,54.8,29.94,East,85,1.0,1.0,98,0.00,,,0.00,Wunderground v.1.15,2013-02-12 12:45:00,
2013-02-12 06:55:00,55.4,54.8,29.94,NE,34,1.0,2.0,98,0.00,,,0.00,Wunderground v.1.15,2013-02-12 12:55:00,
2013-02-12 07:00:00,55.4,54.8,29.94,ENE,62,2.0,2.0,98,0.00,,,0.00,Wunderground v.1.15,2013-02-12 13:00:00,
2013-02-12 07:10:00,55.4,54.8,29.94,ENE,61,0.0,0.0,98,0.00,,,0.00,Wunderground v.1.15,2013-02-12 13:10:00,
2013-02-12 07:15:00,55.6,55.0,29.93,East,85,1.0,4.0,98,0.00,,,0.00,Wunderground v.1.15,2013-02-12 13:15:00,
2013-02-12 07:25:00,55.6,55.0,29.93,East,90,1.0,1.0,98,0.00,,,0.00,Wunderground v.1.15,2013-02-12 13:25:00,
2013-02-12 07:35:00,55.7,55.1,29.92,ENE,75,0.0,0.0,98,0.00,,,0.00,Wunderground v.1.15,2013-02-12 13:35:00,
2013-02-12 07:40:00,55.7,55.1,29.92,East,85,0.0,7.0,98,0.00,,,0.00,Wunderground v.1.15,2013-02-12 13:40:00,
2013-02-12 07:45:00,55.7,55.1,29.92,ENE,59,1.0,1.0,98,0.00,,,0.00,Wunderground v.1.15,2013-02-12 13:45:00,
2013-02-12 07:55:00,55.9,55.3,29.92,NE,51,2.0,2.0,98,0.00,,,0.00,Wunderground v.1.15,2013-02-12 13:55:00,
2013-02-12 08:00:00,56.0,55.4,29.92,East,93,1.0,1.0,98,0.00,,,0.00,Wunderground v.1.15,2013-02-12 14:00:00,
2013-02-12 08:10:00,56.0,55.4,29.92,SE,130,0.0,1.0,98,0.00,,,0.00,Wunderground v.1.15,2013-02-12 14:10:00,
2013-02-12 08:15:00,56.2,55.6,29.92,East,92,1.0,1.0,98,0.00,,,0.00,Wunderground v.1.15,2013-02-12 14:15:00,
2013-02-12 08:25:00,56.3,55.7,29.92,East,92,1.0,2.0,98,0.00,,,0.00,Wunderground v.1.15,2013-02-12 14:25:00,
2013-02-12 08:30:00,56.5,55.9,29.92,ESE,109,0.0,0.0,98,0.00,,,0.00,Wunderground v.1.15,2013-02-12 14:30:00,
2013-02-12 08:40:00,56.5,55.7,29.92,East,99,3.0,3.0,97,0.00,,,0.00,Wunderground v.1.15,2013-02-12 14:40:00,
2013-02-12 08:45:00,56.5,55.9,29.92,SE,131,3.0,8.0,98,0.00,,,0.00,Wunderground v.1.15,2013-02-12 14:45:00,
2013-02-12 08:55:00,56.7,56.1,29.92,East,93,2.0,6.0,98,0.00,,,0.00,Wunderground v.1.15,2013-02-12 14:55:00,
2013-02-12 09:05:00,56.9,56.3,29.92,East,85,2.0,2.0,98,0.00,,,0.00,Wunderground v.1.15,2013-02-12 15:05:00,
2013-02-12 09:10:00,56.9,56.3,29.92,East,86,1.0,2.0,98,0.00,,,0.00,Wunderground v.1.15,2013-02-12 15:10:00,
2013-02-12 09:15:00,57.0,56.4,29.92,East,88,0.0,0.0,98,0.00,,,0.00,Wunderground v.1.15,2013-02-12 15:15:00,
2013-02-12 09:25:00,57.0,56.4,29.92,East,79,2.0,2.0,98,0.00,,,0.00,Wunderground v.1.15,2013-02-12 15:25:00,
2013-02-12 09:30:00,57.2,56.6,29.92,East,88,2.0,2.0,98,0.00,,,0.00,Wunderground v.1.15,2013-02-12 15:30:00,
2013-02-12 09:40:00,57.3,56.5,29.92,East,88,0.0,1.0,97,0.00,,,0.00,Wunderground v.1.15,2013-02-12 15:40:00,
2013-02-12 09:50:00,57.5,56.7,29.92,East,85,0.0,0.0,97,0.00,,,0.00,Wunderground v.1.15,2013-02-12 15:50:00,
2013-02-12 09:55:00,57.3,56.5,29.92,NNE,27,0.0,0.0,97,0.00,,,0.01,Wunderground v.1.15,2013-02-12 15:55:00,
2013-02-12 10:00:00,57.3,56.5,29.92,East,89,0.0,0.0,97,1.49,,,0.07,Wunderground v.1.15,2013-02-12 16:00:00,
2013-02-12 10:10:00,57.3,56.5,29.92,East,88,0.0,0.0,97,0.17,,,0.11,Wunderground v.1.15,2013-02-12 16:10:00,
2013-02-12 10:15:00,57.5,56.9,29.92,South,169,0.0,0.0,98,0.07,,,0.11,Wunderground v.1.15,2013-02-12 16:15:00,
2013-02-12 10:25:00,58.0,57.4,29.92,East,99,0.0,4.0,98,0.00,,,0.11,Wunderground v.1.15,2013-02-12 16:25:00,
2013-02-12 10:30:00,57.8,57.2,29.90,East,86,1.0,2.0,98,0.00,,,0.11,Wunderground v.1.15,2013-02-12 16:30:00,
2013-02-12 10:40:00,58.3,57.7,29.90,ESE,117,1.0,1.0,98,0.00,,,0.11,Wunderground v.1.15,2013-02-12 16:40:00,
2013-02-12 10:45:00,58.4,57.8,29.90,ESE,121,1.0,1.0,98,0.00,,,0.11,Wunderground v.1.15,2013-02-12 16:45:00,
2013-02-12 10:55:00,58.3,57.7,29.90,ENE,73,0.0,0.0,98,0.00,,,0.11,Wunderground v.1.15,2013-02-12 16:55:00,
2013-02-12 11:00:00,58.3,57.7,29.89,East,97,1.0,1.0,98,0.00,,,0.11,Wunderground v.1.15,2013-02-12 17:00:00,
2013-02-12 11:10:00,58.3,57.7,29.89,East,83,0.0,0.0,98,0.00,,,0.11,Wunderground v.1.15,2013-02-12 17:10:00,
2013-02-12 11:15:00,58.4,57.8,29.87,East,89,1.0,1.0,98,0.00,,,0.11,Wunderground v.1.15,2013-02-12 17:15:00,
2013-02-12 11:25:00,58.4,57.8,29.87,East,100,1.0,6.0,98,0.00,,,0.12,Wunderground v.1.15,2013-02-12 17:25:00,
2013-02-12 11:30:00,58.4,57.8,29.86,East,86,1.0,4.0,98,0.00,,,0.12,Wunderground v.1.15,2013-02-12 17:30:00,
2013-02-12 11:40:00,59.0,58.4,29.86,East,89,1.0,1.0,98,0.00,,,0.12,Wunderground v.1.15,2013-02-12 17:40:00,
2013-02-12 11:45:00,59.0,58.4,29.86,ENE,66,0.0,1.0,98,0.00,,,0.12,Wunderground v.1.15,2013-02-12 17:45:00,
2013-02-12 11:55:00,59.0,58.4,29.86,ESE,114,1.0,1.0,98,0.00,,,0.12,Wunderground v.1.15,2013-02-12 17:55:00,
2013-02-12 12:00:00,59.0,58.4,29.85,East,82,1.0,4.0,98,0.00,,,0.12,Wunderground v.1.15,2013-02-12 18:00:00,
2013-02-12 12:10:00,59.0,58.4,29.85,ENE,75,1.0,1.0,98,0.00,,,0.12,Wunderground v.1.15,2013-02-12 18:10:00,
2013-02-12 12:15:00,59.2,58.6,29.84,East,88,1.0,1.0,98,0.00,,,0.12,Wunderground v.1.15,2013-02-12 18:15:00,
2013-02-12 12:25:00,59.3,58.7,29.84,ESE,113,1.0,1.0,98,0.00,,,0.12,Wunderground v.1.15,2013-02-12 18:25:00,
2013-02-12 12:30:00,59.5,58.9,29.82,ESE,109,0.0,1.0,98,0.30,,,0.14,Wunderground v.1.15,2013-02-12 18:30:00,
2013-02-12 12:40:00,59.6,59.0,29.82,East,86,1.0,1.0,98,0.08,,,0.15,Wunderground v.1.15,2013-02-12 18:40:00,
2013-02-12 12:50:00,60.1,59.5,29.82,East,80,1.0,1.0,98,0.00,,,0.15,Wunderground v.1.15,2013-02-12 18:50:00,
2013-02-12 12:55:00,60.1,59.5,29.82,East,90,1.0,1.0,98,0.00,,,0.15,Wunderground v.1.15,2013-02-12 18:55:00,
2013-02-12 13:00:00,60.1,59.5,29.80,ESE,113,0.0,0.0,98,0.00,,,0.15,Wunderground v.1.15,2013-02-12 19:00:00,
2013-02-12 13:10:00,60.2,59.6,29.80,East,95,0.0,2.0,98,0.00,,,0.15,Wunderground v.1.15,2013-02-12 19:10:00,
2013-02-12 13:15:00,60.2,59.6,29.76,East,89,1.0,2.0,98,0.00,,,0.15,Wunderground v.1.15,2013-02-12 19:15:00,
2013-02-12 13:25:00,60.2,59.6,29.76,ESE,106,0.0,1.0,98,0.00,,,0.15,Wunderground v.1.15,2013-02-12 19:25:00,
2013-02-12 13:35:00,60.2,59.6,29.75,NE,56,0.0,0.0,98,0.21,,,0.25,Wunderground v.1.15,2013-02-12 19:35:00,
2013-02-12 13:40:00,60.2,59.6,29.75,ENE,73,0.0,0.0,98,3.06,,,0.32,Wunderground v.1.15,2013-02-12 19:40:00,
2013-02-12 13:45:00,60.4,59.8,29.74,East,79,0.0,0.0,98,1.22,,,0.58,Wunderground v.1.15,2013-02-12 19:45:00,
2013-02-12 13:55:00,60.7,60.1,29.74,SE,131,0.0,0.0,98,0.15,,,0.71,Wunderground v.1.15,2013-02-12 19:55:00,
2013-02-12 14:00:00,60.9,60.3,29.75,SSE,158,0.0,0.0,98,0.17,,,0.74,Wunderground v.1.15,2013-02-12 20:00:00,
2013-02-12 14:10:00,61.0,60.4,29.75,SSE,160,0.0,0.0,98,0.38,,,0.76,Wunderground v.1.15,2013-02-12 20:10:00,
2013-02-12 14:20:00,61.3,60.7,29.75,SSE,162,0.0,0.0,98,0.06,,,0.78,Wunderground v.1.15,2013-02-12 20:20:00,
2013-02-12 14:30:00,61.6,61.0,29.72,SSE,161,0.0,0.0,98,0.06,,,0.78,Wunderground v.1.15,2013-02-12 20:30:00,
2013-02-12 14:40:00,61.8,61.2,29.72,SSE,155,0.0,0.0,98,0.04,,,0.79,Wunderground v.1.15,2013-02-12 20:40:00,
2013-02-12 14:45:00,62.1,61.5,29.72,SSE,155,0.0,0.0,98,0.12,,,0.80,Wunderground v.1.15,2013-02-12 20:45:00,
2013-02-12 14:55:00,62.4,61.8,29.72,NW,316,0.0,0.0,98,0.07,,,0.81,Wunderground v.1.15,2013-02-12 20:55:00,
2013-02-12 15:00:00,62.6,62.0,29.73,NW,316,0.0,0.0,98,0.04,,,0.81,Wunderground v.1.15,2013-02-12 21:00:00,
2013-02-12 15:10:00,62.9,62.3,29.73,North,0,0.0,0.0,98,0.00,,,0.81,Wunderground v.1.15,2013-02-12 21:10:00,
2013-02-12 15:15:00,63.1,62.5,29.72,North,0,0.0,0.0,98,0.00,,,0.81,Wunderground v.1.15,2013-02-12 21:15:00,
2013-02-12 15:25:00,67.3,67.0,29.72,SSE,167,3.0,7.0,99,0.00,,,0.81,Wunderground v.1.15,2013-02-12 21:25:00,
2013-02-12 15:30:00,68.8,68.5,29.71,WSW,237,5.0,5.0,99,0.00,,,0.81,Wunderground v.1.15,2013-02-12 21:30:00,
2013-02-12 15:40:00,69.6,69.3,29.71,SW,223,7.0,7.0,99,0.00,,,0.81,Wunderground v.1.15,2013-02-12 21:40:00,
2013-02-12 15:45:00,69.8,69.5,29.71,SW,217,6.0,7.0,99,0.00,,,0.81,Wunderground v.1.15,2013-02-12 21:45:00,
2013-02-12 15:55:00,69.8,69.5,29.71,SSE,161,5.0,5.0,99,0.00,,,0.81,Wunderground v.1.15,2013-02-12 21:55:00,
2013-02-12 16:00:00,69.8,69.5,29.70,SW,223,5.0,5.0,99,0.00,,,0.81,Wunderground v.1.15,2013-02-12 22:00:00,
2013-02-12 16:10:00,69.9,69.6,29.70,WSW,250,4.0,4.0,99,0.00,,,0.81,Wunderground v.1.15,2013-02-12 22:10:00,
2013-02-12 16:15:00,69.8,69.2,29.71,SW,233,5.0,15.0,98,0.00,,,0.81,Wunderground v.1.15,2013-02-12 22:15:00,
2013-02-12 16:25:00,69.9,69.6,29.71,WSW,253,4.0,5.0,99,0.00,,,0.81,Wunderground v.1.15,2013-02-12 22:25:00,
2013-02-12 16:30:00,69.9,69.6,29.70,SW,227,4.0,4.0,99,0.00,,,0.81,Wunderground v.1.15,2013-02-12 22:30:00,
2013-02-12 16:40:00,70.1,69.5,29.70,SW,223,5.0,5.0,98,0.00,,,0.81,Wunderground v.1.15,2013-02-12 22:40:00,
2013-02-12 16:50:00,70.1,69.5,29.71,South,176,4.0,4.0,98,0.00,,,0.81,Wunderground v.1.15,2013-02-12 22:50:00,
2013-02-12 16:55:00,70.3,69.7,29.71,SW,224,4.0,4.0,98,0.00,,,0.81,Wunderground v.1.15,2013-02-12 22:55:00,
2013-02-12 17:00:00,70.3,69.7,29.70,SW,229,4.0,4.0,98,0.00,,,0.81,Wunderground v.1.15,2013-02-12 23:00:00,
2013-02-12 17:10:00,70.4,69.8,29.70,WSW,244,3.0,11.0,98,0.00,,,0.81,Wunderground v.1.15,2013-02-12 23:10:00,
2013-02-12 17:15:00,70.3,69.7,29.70,SW,222,5.0,11.0,98,0.00,,,0.81,Wunderground v.1.15,2013-02-12 23:15:00,
2013-02-12 17:25:00,70.3,69.7,29.70,SW,232,5.0,6.0,98,0.00,,,0.81,Wunderground v.1.15,2013-02-12 23:25:00,
2013-02-12 17:35:00,70.1,69.5,29.70,SW,223,4.0,4.0,98,0.00,,,0.81,Wunderground v.1.15,2013-02-12 23:35:00,
2013-02-12 17:40:00,70.1,69.5,29.70,WSW,240,3.0,9.0,98,0.00,,,0.81,Wunderground v.1.15,2013-02-12 23:40:00,
2013-02-12 17:45:00,70.3,69.7,29.70,SW,236,5.0,9.0,98,0.00,,,0.81,Wunderground v.1.15,2013-02-12 23:45:00,
2013-02-12 17:55:00,70.4,69.8,29.70,SW,234,7.0,7.0,98,0.00,,,0.81,Wunderground v.1.15,2013-02-12 23:55:00,
2013-02-12 18:00:00,70.4,69.5,29.70,WSW,243,6.0,10.0,97,0.00,,,0.81,Wunderground v.1.15,2013-02-13 00:00:00,
2013-02-12 18:10:00,70.4,69.5,29.70,West,274,4.0,6.0,97,0.00,,,0.81,Wunderground v.1.15,2013-02-13 00:10:00,
2013-02-12 18:15:00,70.4,69.5,29.70,SW,236,5.0,6.0,97,0.00,,,0.81,Wunderground v.1.15,2013-02-13 00:15:00,
2013-02-12 18:25:00,70.3,69.4,29.70,West,265,4.0,11.0,97,0.00,,,0.81,Wunderground v.1.15,2013-02-13 00:25:00,
2013-02-12 18:30:00,70.3,69.4,29.71,SW,219,4.0,4.0,97,0.00,,,0.81,Wunderground v.1.15,2013-02-13 00:30:00,
2013-02-12 18:40:00,70.3,69.1,29.71,SW,232,2.0,2.0,96,0.00,,,0.81,Wunderground v.1.15,2013-02-13 00:40:00,
2013-02-12 18:45:00,70.3,69.1,29.71,WSW,257,1.0,2.0,96,0.00,,,0.81,Wunderground v.1.15,2013-02-13 00:45:00,
2013-02-12 18:55:00,70.4,69.2,29.71,SW,222,3.0,14.0,96,0.00,,,0.81,Wunderground v.1.15,2013-02-13 00:55:00,
2013-02-12 19:00:00,70.3,69.1,29.71,WSW,258,5.0,6.0,96,0.00,,,0.81,Wunderground v.1.15,2013-02-13 01:00:00,
2013-02-12 19:10:00,70.3,69.1,29.71,NW,305,5.0,5.0,96,0.00,,,0.81,Wunderground v.1.15,2013-02-13 01:10:00,
2013-02-12 19:15:00,70.4,69.2,29.71,NW,309,5.0,5.0,96,0.00,,,0.81,Wunderground v.1.15,2013-02-13 01:15:00,
2013-02-12 19:25:00,70.3,69.1,29.71,SW,233,3.0,13.0,96,0.00,,,0.81,Wunderground v.1.15,2013-02-13 01:25:00,
2013-02-12 19:30:00,70.3,69.1,29.70,West,261,5.0,5.0,96,0.00,,,0.81,Wunderground v.1.15,2013-02-13 01:30:00,
2013-02-12 19:40:00,70.4,68.9,29.70,WSW,244,6.0,7.0,95,0.00,,,0.81,Wunderground v.1.15,2013-02-13 01:40:00,
2013-02-12 19:45:00,70.4,68.9,29.71,West,275,5.0,15.0,95,0.00,,,0.81,Wunderground v.1.15,2013-02-13 01:45:00,
2013-02-12 19:55:00,70.3,68.8,29.71,WSW,258,5.0,5.0,95,0.00,,,0.81,Wunderground v.1.15,2013-02-13 01:55:00,
2013-02-12 20:00:00,70.3,68.8,29.72,SW,220,5.0,6.0,95,0.00,,,0.81,Wunderground v.1.15,2013-02-13 02:00:00,
2013-02-12 20:10:00,70.1,68.6,29.72,SSW,208,4.0,9.0,95,0.00,,,0.81,Wunderground v.1.15,2013-02-13 02:10:00,
2013-02-12 20:20:00,69.9,68.4,29.73,WNW,282,3.0,3.0,95,0.00,,,0.81,Wunderground v.1.15,2013-02-13 02:20:00,
2013-02-12 20:30:00,69.8,68.3,29.72,WSW,246,3.0,3.0,95,0.00,,,0.81,Wunderground v.1.15,2013-02-13 02:30:00,
2013-02-12 20:40:00,69.8,68.3,29.72,WSW,246,2.0,2.0,95,0.00,,,0.81,Wunderground v.1.15,2013-02-13 02:40:00,
2013-02-12 20:45:00,69.8,68.3,29.72,West,272,2.0,2.0,95,0.00,,,0.81,Wunderground v.1.15,2013-02-13 02:45:00,
2013-02-12 20:55:00,69.8,68.3,29.72,WSW,240,2.0,2.0,95,0.00,,,0.81,Wunderground v.1.15,2013-02-13 02:55:00,
2013-02-12 21:00:00,69.8,68.3,29.72,West,260,1.0,1.0,95,0.00,,,0.81,Wunderground v.1.15,2013-02-13 03:00:00,
2013-02-12 21:10:00,69.6,68.1,29.72,WSW,246,2.0,4.0,95,0.00,,,0.81,Wunderground v.1.15,2013-02-13 03:10:00,
2013-02-12 21:15:00,69.8,68.3,29.72,West,271,1.0,4.0,95,0.00,,,0.81,Wunderground v.1.15,2013-02-13 03:15:00,
2013-02-12 21:25:00,69.6,68.1,29.72,SW,234,0.0,1.0,95,0.00,,,0.81,Wunderground v.1.15,2013-02-13 03:25:00,
2013-02-12 21:30:00,69.6,68.1,29.72,SW,229,2.0,2.0,95,0.00,,,0.81,Wunderground v.1.15,2013-02-13 03:30:00,
2013-02-12 21:40:00,69.6,68.1,29.72,WSW,239,1.0,1.0,95,0.00,,,0.81,Wunderground v.1.15,2013-02-13 03:40:00,
2013-02-12 21:45:00,69.4,67.9,29.72,SSW,200,1.0,1.0,95,0.00,,,0.81,Wunderground v.1.15,2013-02-13 03:45:00,
2013-02-12 21:55:00,69.4,67.9,29.72,SW,220,1.0,2.0,95,0.00,,,0.81,Wunderground v.1.15,2013-02-13 03:55:00,
2013-02-12 22:00:00,69.3,67.8,29.72,WSW,257,2.0,2.0,95,0.00,,,0.81,Wunderground v.1.15,2013-02-13 04:00:00,
2013-02-12 22:10:00,69.3,67.8,29.72,WSW,254,4.0,6.0,95,0.00,,,0.81,Wunderground v.1.15,2013-02-13 04:10:00,
2013-02-12 22:15:00,69.1,67.9,29.72,WSW,258,3.0,6.0,96,0.00,,,0.81,Wunderground v.1.15,2013-02-13 04:15:00,
2013-02-12 22:25:00,69.1,67.9,29.72,NW,305,3.0,3.0,96,0.00,,,0.81,Wunderground v.1.15,2013-02-13 04:25:00,
2013-02-12 22:30:00,69.1,67.9,29.73,West,272,2.0,2.0,96,0.00,,,0.81,Wunderground v.1.15,2013-02-13 04:30:00,
2013-02-12 22:40:00,69.1,67.9,29.73,WSW,256,1.0,1.0,96,0.00,,,0.81,Wunderground v.1.15,2013-02-13 04:40:00,
2013-02-12 22:45:00,69.1,67.9,29.73,WSW,250,1.0,4.0,96,0.00,,,0.81,Wunderground v.1.15,2013-02-13 04:45:00,
2013-02-12 22:55:00,69.1,67.9,29.73,WSW,253,1.0,6.0,96,0.00,,,0.81,Wunderground v.1.15,2013-02-13 04:55:00,
2013-02-12 23:00:00,68.9,67.7,29.73,SW,226,1.0,1.0,96,0.00,,,0.81,Wunderground v.1.15,2013-02-13 05:00:00,
2013-02-12 23:05:00,68.9,67.7,29.73,West,263,1.0,1.0,96,0.00,,,0.81,Wunderground v.1.15,2013-02-13 05:05:00,
2013-02-12 23:10:00,68.9,67.7,29.73,WSW,253,1.0,1.0,96,0.00,,,0.81,Wunderground v.1.15,2013-02-13 05:10:00,
2013-02-12 23:20:00,69.1,67.9,29.74,WSW,250,2.0,2.0,96,0.00,,,0.81,Wunderground v.1.15,2013-02-13 05:20:00,
2013-02-12 23:25:00,69.1,67.9,29.74,WSW,237,1.0,2.0,96,0.00,,,0.81,Wunderground v.1.15,2013-02-13 05:25:00,
2013-02-12 23:30:00,68.9,67.7,29.74,WSW,253,0.0,0.0,96,0.00,,,0.81,Wunderground v.1.15,2013-02-13 05:30:00,
2013-02-12 23:35:00,68.9,67.7,29.74,NW,312,0.0,0.0,96,0.00,,,0.81,Wunderground v.1.15,2013-02-13 05:35:00,
2013-02-12 23:40:00,68.9,67.4,29.74,WNW,285,0.0,0.0,95,0.00,,,0.81,Wunderground v.1.15,2013-02-13 05:40:00,
2013-02-12 23:45:00,68.9,67.4,29.72,WSW,258,1.0,1.0,95,0.00,,,0.81,Wunderground v.1.15,2013-02-13 05:45:00,
2013-02-12 23:55:00,68.8,67.3,29.72,SW,227,1.0,4.0,95,0.00,,,0.81,Wunderground v.1.15,2013-02-13 05:55:00,